Location: Chuathbaluk
(61.5726°N, 159.2454°W)
Time: 01:12:19
(UTC+00:00)

DOVE 4 - Visible Passes

Search period start: 24 January 2021 00:00
Search period end: 03 February 2021 00:00
Orbit: 589 x 801 km, 97.8° (Epoch: 23 January)

Date Brightness Start Highest point End Pass type
(mag) Time Alt. Az. Time Alt. Az. Time Alt. Az.
24 Jan ? 14:05:08 10° N 14:05:32 12° N 14:05:32 12° N visible
25 Jan ? 13:07:33 10° N 13:07:40 11° N 13:07:40 11° N visible
25 Jan ? 14:45:57 10° N 14:46:24 11° N 14:46:24 11° N visible
26 Jan ? 13:48:11 10° N 13:48:32 12° N 13:48:32 12° N visible
26 Jan ? 15:27:12 10° NNW 15:27:16 10° NNW 15:27:16 10° NNW visible
27 Jan ? 12:50:39 10° NNE 12:50:41 10° NNE 12:50:41 10° NNE visible
27 Jan ? 14:28:57 10° N 14:29:24 12° N 14:29:24 12° N visible
28 Jan ? 13:31:15 10° N 13:31:33 11° N 13:31:33 11° N visible
28 Jan ? 15:10:00 10° N 15:10:16 11° N 15:10:16 11° N visible
29 Jan ? 14:11:57 10° N 14:12:24 12° N 14:12:24 12° N visible
30 Jan ? 13:14:19 10° N 13:14:33 11° N 13:14:33 11° N visible
30 Jan ? 14:52:52 10° N 14:53:16 11° N 14:53:16 11° N visible
31 Jan ? 13:54:58 10° N 13:55:25 12° N 13:55:25 12° N visible
01 Feb ? 12:57:23 10° NNE 12:57:33 11° N 12:57:33 11° N visible
01 Feb ? 14:35:49 10° N 14:36:16 11° N 14:36:16 11° N visible
02 Feb ? 13:38:00 10° N 13:38:25 12° N 13:38:25 12° N visible
